Progress Software Debt to Equity Ratio 2010-2024 | PRGS

Current and historical debt to equity ratio values for Progress Software (PRGS) over the last 10 years. The debt/equity ratio can be defined as a measure of a company's financial leverage calculated by dividing its long-term debt by stockholders' equity. Progress Software debt/equity for the three months ending February 29, 2024 was 1.50.
Progress Software Debt/Equity Ratio Historical Data
Date Long Term Debt Shareholder's Equity Debt to Equity Ratio
2024-02-29 $1.09B $0.46B 2.35
2023-11-30 $1.14B $0.46B 2.49
2023-08-31 $1.15B $0.45B 2.59
2023-05-31 $1.18B $0.42B 2.83
2023-02-28 $1.23B $0.41B 2.98
2022-11-30 $1.01B $0.40B 2.54
2022-08-31 $0.98B $0.37B 2.67
2022-05-31 $0.98B $0.37B 2.64
2022-02-28 $0.99B $0.37B 2.67
2021-11-30 $0.95B $0.41B 2.31
2021-08-31 $0.88B $0.40B 2.22
2021-05-31 $0.87B $0.37B 2.39
2021-02-28 $0.68B $0.35B 1.91
2020-11-30 $0.70B $0.35B 2.01
2020-08-31 $0.55B $0.37B 1.50
2020-05-31 $0.56B $0.34B 1.63
2020-02-29 $0.56B $0.33B 1.71
2019-11-30 $0.55B $0.33B 1.67
2019-08-31 $0.53B $0.33B 1.58
2019-05-31 $0.52B $0.32B 1.63
2019-02-28 $0.31B $0.31B 1.01
2018-11-30 $0.32B $0.32B 0.99
2018-08-31 $0.32B $0.31B 1.05
2018-05-31 $0.33B $0.31B 1.06
2018-02-28 $0.34B $0.35B 0.97
2017-11-30 $0.34B $0.38B 0.91
2017-08-31 $0.33B $0.39B 0.85
2017-05-31 $0.34B $0.39B 0.88
2017-02-28 $0.36B $0.39B 0.92
2016-11-30 $0.35B $0.41B 0.86
2016-08-31 $0.34B $0.50B 0.68
2016-05-31 $0.34B $0.49B 0.70
2016-02-29 $0.35B $0.52B 0.68
2015-11-30 $0.36B $0.52B 0.68
2015-08-31 $0.36B $0.53B 0.67
2015-05-31 $0.35B $0.52B 0.68
2015-02-28 $0.35B $0.54B 0.65
2014-11-30 $0.16B $0.54B 0.29
2014-08-31 $0.15B $0.52B 0.29
2014-05-31 $0.16B $0.52B 0.30
2014-02-28 $0.17B $0.53B 0.32
2013-11-30 $0.17B $0.51B 0.33
2013-08-31 $0.17B $0.52B 0.32
2013-05-31 $0.17B $0.54B 0.31
2013-02-28 $0.19B $0.60B 0.31
2012-11-30 $0.25B $0.64B 0.39
2012-08-31 $0.23B $0.68B 0.33
2012-05-31 $0.24B $0.66B 0.36
2012-02-29 $0.26B $0.65B 0.39
2011-11-30 $0.24B $0.63B 0.38
2011-08-31 $0.24B $0.67B 0.36
2011-05-31 $0.24B $0.72B 0.34
2011-02-28 $0.25B $0.72B 0.35
2010-11-30 $0.25B $0.69B 0.36
2010-08-31 $0.23B $0.63B 0.36
2010-05-31 $0.23B $0.63B 0.37
2010-02-28 $0.26B $0.57B 0.47
2009-11-30 $0.24B $0.56B 0.44
2009-08-31 $0.24B $0.53B 0.46
2009-05-31 $0.25B $0.51B 0.49
2009-02-28 $0.26B $0.49B 0.52
Sector Industry Market Cap Revenue
Computer and Technology Computer Software $2.246B $0.694B
Progress offers the leading platform for developing and deploying mission-critical business applications. Progress empowers enterprises and ISVs to build and deliver cognitive-first applications that harness big data to derive business insights and competitive advantage. Progress offers leading technologies for easily building powerful user interfaces across any type of device, a reliable, scalable and secure backend platform to deploy modern applications, leading data connectivity to all sources, and award-winning predictive analytics that brings the power of machine learning to any organization.
Stock Name Country Market Cap PE Ratio
Microsoft (MSFT) United States $2979.308B 36.25
Oracle (ORCL) United States $314.786B 25.62
Salesforce (CRM) United States $265.596B 44.31
Adobe (ADBE) United States $209.167B 34.97
Intuit (INTU) United States $170.736B 57.26
Synopsys (SNPS) United States $78.612B 56.71
Cadence Design Systems (CDNS) United States $77.594B 73.84
Dassault Systemes SA (DASTY) France $54.970B 36.03
Autodesk (ADSK) United States $46.444B 45.71
ANSYS (ANSS) United States $28.356B 47.84
MicroStrategy (MSTR) United States $22.466B 44.76
PTC (PTC) United States $21.346B 62.87
SS&C Technologies Holdings (SSNC) United States $15.138B 14.90
Manhattan Associates (MANH) United States $14.058B 80.96
Open Text (OTEX) Canada $9.662B 10.36
Descartes Systems Group (DSGX) Canada $7.806B 68.39
Trend Micro (TMICY) Japan $7.315B 64.90
Pegasystems (PEGA) United States $4.880B 66.85
Blackbaud (BLKB) United States $4.205B 37.62
CommVault Systems (CVLT) United States $4.183B 74.64
ACI Worldwide (ACIW) United States $3.432B 17.62
Verint Systems (VRNT) United States $1.819B 16.95
Sapiens (SPNS) Israel $1.680B 23.80
BlackBerry (BB) Canada $1.650B 0.00
PROS Holdings (PRO) United States $1.580B 0.00
Simulations Plus (SLP) United States $0.899B 66.18
Rand Worldwide (RWWI) United States $0.574B 0.00
Magic Software Enterprises (MGIC) Israel $0.569B 11.71
American Software (AMSWA) United States $0.348B 29.11
Canaan (CAN) China $0.217B 0.00
Rigetti Computing (RGTI) United States $0.180B 0.00
OptimizeRx (OPRX) United States $0.165B 0.00
Icad Inc (ICAD) United States $0.040B 0.00
Hanryu Holdings (HRYU) South Korea $0.031B 0.00
NetSol Technologies (NTWK) United States $0.030B 0.00
Neonode (NEON) Sweden $0.029B 0.00
Wetouch Technology (WETH) $0.029B 0.00
Smith Micro Software (SMSI) United States $0.021B 0.00
GSE Systems (GVP) United States $0.009B 0.00
SAP SE (SAP) Germany $0.000B 45.57